Temp
-8 -8 -9 -9 -9 -9 -8 -8 -7 -8 -8 -8 -7 -7 -6 -6 -5 -5 -5 -6 -5 -6 -7 -8 -8 -9 -9 -9 -9 -8 -7 -7 -6 -8 -8 -7 -7 -7 -7 -7 -7 -7 -7 -7 -7
-8 -8 -8 -9 -9 -9 -8 -8 -7 -7 -8 -7 -7 -7 -7 -6 -6 -5 -5 -6 -5 -6 -7 -8 -9 -9 -9 -9 -9 -9 -7 -6 -7 -7 -8 -8 -8 -8 -8 -8 -7 -7 -7 -7 -7
-8 -8 -8 -8 -8 -8 -8 -8 -7 -7 -7 -7 -7 -7 -7 -6 -6 -6 -6 -6 -6 -6 -7 -8 -9 -9 -9 -9 -9 -8 -7 -7 -6 -8 -9 -9 -8 -8 -8 -7 -7 -7 -7 -7 -7
-8 -8 -8 -8 -8 -8 -8 -8 -7 -7 -7 -6 -6 -7 -7 -7 -6 -6 -6 -5 -6 -6 -7 -8 -9 -9 -9 -9 -9 -7 -7 -8 -8 -8 -8 -8 -8 -8 -8 -8 -7 -7 -7 -7 -8
-8 -8 -8 -8 -8 -8 -8 -8 -8 -7 -7 -6 -6 -6 -7 -7 -6 -6 -6 -6 -6 -7 -8 -8 -9 -9 -9 -9 -9 -9 -9 -8 -8 -7 -8 -8 -7 -8 -8 -8 -7 -6 -7 -7 -7
-8 -8 -8 -8 -8 -8 -8 -8 -8 -7 -7 -7 -6 -6 -6 -7 -6 -6 -6 -6 -6 -7 -7 -8 -9 -9 -9 -9 -8 -10 -9 -8 -8 -8 -8 -8 -7 -7 -8 -7 -7 -7 -7 -7 -7
-8 -8 -8 -8 -8 -8 -8 -8 -7 -7 -7 -6 -6 -6 -6 -6 -6 -6 -6 -6 -6 -7 -8 -9 -9 -9 -9 -9 -9 -9 -8 -8 -8 -8 -7 -7 -8 -7 -8 -8 -8 -7 -8 -8 -8
-8 -8 -8 -8 -7 -8 -8 -8 -7 -7 -7 -6 -7 -7 -7 -7 -7 -6 -6 -6 -7 -7 -8 -7 -8 -9 -9 -9 -9 -8 -7 -8 -8 -7 -7 -8 -8 -8 -8 -8 -8 -8 -8 -8 -9
-8 -8 -8 -8 -8 -7 -8 -8 -7 -7 -7 -7 -6 -7 -6 -7 -7 -7 -6 -6 -7 -7 -7 -7 -7 -9 -9 -8 -8 -9 -9 -8 -9 -8 -8 -8 -7 -8 -8 -8 -8 -8 -8 -9 -10
-8 -8 -8 -8 -8 -8 -7 -8 -7 -7 -7 -7 -6 -6 -6 -7 -6 -6 -6 -6 -7 -7 -6 -6 -7 -8 -9 -8 -8 -8 -8 -9 -8 -9 -9 -7 -8 -8 -8 -8 -8 -8 -8 -9 -10
-8 -8 -8 -8 -8 -8 -7 -8 -7 -7 -7 -7 -7 -6 -6 -6 -6 -6 -7 -6 -6 -7 -6 -6 -7 -8 -8 -9 -9 -10 -8 -8 -9 -9 -9 -9 -9 -8 -8 -8 -8 -8 -8 -9 -10
-8 -8 -8 -9 -8 -8 -8 -7 -7 -7 -7 -7 -7 -7 -6 -6 -7 -6 -6 -6 -6 -6 -6 -7 -6 -9 -9 -9 -9 -9 -9 -9 -8 -9 -9 -9 -9 -9 -9 -9 -9 -9 -9 -8 -9
-8 -8 -9 -9 -9 -9 -8 -7 -7 -7 -7 -7 -7 -7 -7 -6 -7 -7 -6 -7 -6 -6 -6 -7 -8 -9 -9 -9 -9 -9 -9 -7 -9 -10 -9 -9 -9 -10 -10 -10 -10 -9 -8 -8 -9
-7 -8 -8 -9 -9 -9 -8 -8 -8 -8 -8 -8 -7 -7 -7 -7 -7 -7 -7 -7 -6 -6 -7 -7 -8 -9 -9 -9 -9 -9 -9 -9 -9 -10 -10 -10 -8 -9 -9 -10 -10 -9 -8 -8 -9
-8 -8 -8 -9 -9 -9 -9 -9 -9 -8 -8 -8 -7 -8 -7 -8 -8 -8 -8 -7 -7 -7 -7 -6 -8 -8 -8 -8 -9 -8 -10 -10 -9 -9 -9 -9 -10 -9 -8 -9 -9 -9 -8 -9 -9
-8 -8 -9 -9 -9 -9 -10 -9 -9 -9 -8 -8 -8 -8 -7 -8 -8 -8 -8 -8 -8 -8 -7 -7 -8 -8 -8 -9 -10 -9 -8 -9 -10 -10 -10 -9 -9 -9 -8 -9 -9 -9 -9 -9 -9
-9 -9 -9 -9 -9 -10 -10 -10 -10 -9 -9 -9 -9 -9 -8 -9 -8 -8 -8 -7 -7 -7 -7 -7 -7 -7 -8 -9 -9 -9 -8 -9 -9 -9 -7 -9 -9 -9 -9 -9 -8 -8 -8 -9 -8
-9 -9 -10 -10 -10 -10 -11 -11 -10 -11 -11 -10 -10 -10 -9 -9 -8 -9 -8 -8 -8 -8 -8 -8 -7 -7 -7 -8 -8 -8 -9 -8 -8 -8 -8 -9 -9 -8 -9 -9 -9 -8 -9 -9 -9
-10 -10 -10 -10 -10 -11 -11 -11 -10 -12 -12 -10 -9 -9 -9 -9 -9 -9 -8 -9 -8 -8 -8 -8 -7 -7 -8 -8 -9 -9 -9 -8 -8 -8 -8 -8 -9 -9 -8 -8 -9 -8 -9 -8 -9
-11 -12 -11 -10 -11 -11 -11 -11 -11 -12 -13 -12 -11 -10 -10 -9 -9 -9 -9 -9 -9 -8 -9 -8 -8 -8 -8 -8 -8 -7 -9 -8 -8 -8 -8 -8 -9 -8 -8 -8 -9 -9 -9 -9 -9
-13 -12 -12 -12 -11 -12 -12 -12 -12 -13 -12 -12 -12 -11 -11 -12 -11 -10 -9 -10 -9 -9 -9 -9 -8 -9 -8 -8 -8 -8 -8 -8 -8 -8 -8 -8 -8 -10 -9 -8 -8 -8 -8 -8 -8
-14 -13 -13 -12 -12 -13 -13 -12 -13 -13 -13 -13 -13 -12 -12 -12 -11 -11 -10 -10 -9 -10 -10 -9 -8 -8 -8 -9 -8 -8 -8 -9 -8 -8 -9 -8 -9 -10 -9 -8 -8 -8 -8 -8 -8
-14 -14 -14 -14 -14 -14 -13 -12 -13 -13 -12 -13 -13 -12 -12 -12 -11 -11 -11 -11 -11 -11 -10 -10 -9 -8 -9 -9 -9 -8 -7 -9 -9 -9 -9 -9 -9 -9 -9 -9 -8 -8 -8 -9 -8
-15 -14 -14 -14 -15 -15 -14 -13 -14 -14 -12 -12 -12 -12 -12 -12 -12 -11 -11 -11 -11 -11 -11 -11 -10 -9 -9 -9 -9 -8 -8 -10 -10 -10 -9 -9 -9 -10 -10 -10 -9 -9 -9 -8 -9
-15 -15 -15 -15 -14 -14 -14 -13 -14 -15 -13 -12 -12 -11 -12 -12 -12 -12 -11 -11 -12 -11 -11 -11 -11 -10 -9 -10 -10 -9 -9 -10 -10 -9 -9 -9 -10 -10 -10 -9 -9 -10 -8 -9 -9
-16 -15 -15 -15 -15 -15 -14 -14 -14 -15 -13 -13 -12 -11 -12 -12 -11 -12 -11 -11 -11 -11 -11 -11 -10 -10 -9 -10 -10 -10 -9 -10 -9 -9 -9 -9 -10 -10 -10 -9 -9 -9 -9 -9 -9
-16 -16 -16 -16 -15 -14 -14 -15 -14 -15 -14 -14 -13 -12 -12 -12 -11 -11 -11 -11 -11 -11 -11 -11 -11 -10 -9 -10 -10 -10 -10 -10 -9 -9 -10 -10 -10 -10 -10 -10 -10 -10 -10 -9 -9
Height
5861 5862 5863 5863 5864 5865 5865 5866 5865 5866 5867 5870 5873 5876 5880 5884 5888 5891 5892 5892 5895 5898 5899 5902 5905 5907 5907 5905 5908 5910 5912 5911 5909 5907 5911 5912 5915 5917 5918 5915 5913 5913 5913 5910 5909
5857 5858 5859 5860 5861 5861 5862 5863 5863 5864 5866 5869 5871 5874 5878 5881 5885 5889 5892 5891 5895 5898 5900 5902 5906 5907 5906 5907 5908 5911 5911 5910 5909 5907 5911 5912 5915 5916 5917 5916 5915 5913 5911 5909 5907
5854 5855 5855 5855 5857 5858 5860 5861 5861 5862 5863 5866 5869 5872 5876 5879 5883 5887 5889 5891 5893 5897 5899 5901 5904 5905 5905 5907 5909 5910 5908 5910 5911 5909 5913 5916 5917 5915 5915 5912 5912 5913 5911 5909 5907
5849 5851 5852 5851 5853 5854 5856 5858 5858 5859 5861 5864 5867 5870 5873 5876 5882 5885 5888 5889 5892 5896 5899 5902 5905 5906 5907 5907 5909 5909 5908 5908 5911 5914 5918 5919 5919 5917 5913 5910 5911 5911 5909 5907 5906
5843 5845 5847 5848 5848 5850 5852 5854 5856 5857 5858 5860 5863 5867 5871 5875 5877 5881 5886 5888 5890 5894 5898 5902 5905 5906 5906 5908 5907 5907 5909 5906 5910 5913 5916 5917 5918 5918 5915 5911 5909 5909 5907 5905 5905
5838 5840 5842 5843 5844 5845 5847 5848 5851 5854 5855 5857 5860 5864 5868 5871 5874 5878 5883 5887 5889 5892 5896 5901 5903 5904 5906 5910 5911 5911 5908 5908 5909 5911 5914 5914 5915 5915 5915 5912 5909 5909 5907 5904 5898
5831 5834 5835 5837 5839 5840 5842 5844 5845 5848 5851 5854 5856 5860 5864 5867 5871 5874 5880 5884 5886 5890 5895 5896 5899 5904 5906 5907 5908 5906 5908 5908 5906 5909 5913 5916 5917 5913 5913 5911 5908 5906 5905 5900 5893
5824 5827 5830 5832 5835 5836 5836 5838 5841 5842 5845 5848 5851 5855 5858 5864 5868 5871 5876 5881 5885 5886 5889 5891 5896 5901 5903 5904 5905 5905 5907 5907 5908 5908 5910 5912 5913 5913 5911 5908 5905 5903 5900 5899 5894
5817 5821 5824 5828 5829 5831 5832 5834 5836 5839 5841 5844 5849 5851 5854 5861 5863 5867 5872 5877 5881 5884 5885 5887 5893 5898 5902 5902 5904 5904 5906 5907 5908 5907 5910 5911 5910 5911 5908 5905 5903 5902 5900 5901 5898
5811 5814 5817 5820 5824 5825 5828 5829 5831 5835 5838 5841 5845 5849 5852 5855 5857 5862 5867 5872 5877 5879 5881 5886 5891 5894 5898 5900 5903 5905 5907 5908 5908 5907 5908 5910 5910 5908 5905 5902 5902 5900 5899 5898 5898
5804 5807 5810 5812 5816 5820 5823 5826 5829 5831 5832 5836 5840 5843 5846 5850 5854 5858 5863 5867 5870 5875 5878 5884 5888 5891 5897 5901 5903 5903 5904 5904 5907 5905 5904 5908 5907 5905 5904 5899 5898 5898 5897 5896 5893
5796 5799 5802 5804 5809 5813 5815 5816 5818 5824 5828 5831 5834 5838 5841 5845 5851 5853 5859 5863 5867 5872 5874 5882 5884 5890 5894 5897 5899 5900 5900 5903 5905 5906 5903 5904 5903 5900 5899 5896 5894 5889 5893 5895 5890
5788 5790 5792 5796 5801 5805 5807 5812 5818 5823 5825 5828 5829 5833 5837 5841 5846 5851 5854 5858 5863 5865 5873 5879 5884 5884 5889 5892 5894 5895 5896 5898 5900 5901 5898 5899 5899 5899 5897 5894 5892 5891 5888 5888 5885
5779 5781 5785 5788 5794 5796 5802 5808 5812 5815 5819 5822 5827 5830 5832 5837 5841 5844 5850 5853 5856 5863 5869 5872 5877 5881 5884 5887 5890 5893 5896 5898 5897 5894 5895 5895 5892 5895 5894 5893 5891 5888 5883 5883 5879
5770 5773 5776 5779 5782 5788 5798 5801 5804 5810 5813 5816 5821 5821 5827 5832 5837 5841 5844 5846 5853 5858 5861 5872 5874 5877 5880 5885 5887 5888 5892 5893 5893 5891 5890 5890 5887 5888 5889 5888 5886 5877 5876 5874 5872
5762 5764 5768 5771 5772 5781 5789 5791 5798 5805 5807 5812 5815 5820 5823 5828 5830 5833 5838 5843 5847 5849 5855 5859 5867 5870 5878 5883 5884 5886 5885 5887 5888 5887 5885 5887 5886 5884 5884 5883 5877 5871 5870 5867 5865
5754 5756 5759 5762 5763 5773 5779 5783 5791 5798 5802 5810 5810 5814 5818 5822 5824 5828 5833 5837 5840 5843 5850 5855 5858 5864 5868 5872 5877 5879 5880 5882 5884 5883 5883 5885 5883 5881 5881 5876 5874 5867 5862 5856 5858
5744 5747 5750 5751 5755 5763 5768 5776 5786 5793 5796 5800 5802 5806 5813 5815 5819 5823 5827 5831 5834 5840 5846 5850 5855 5862 5865 5866 5871 5874 5876 5879 5878 5880 5881 5878 5877 5881 5879 5877 5874 5870 5863 5853 5854
5734 5737 5739 5741 5746 5754 5760 5768 5784 5786 5786 5790 5794 5799 5805 5810 5815 5817 5822 5827 5830 5836 5841 5846 5851 5857 5862 5864 5866 5870 5874 5875 5876 5874 5874 5874 5873 5874 5877 5878 5870 5868 5860 5858 5856
5724 5727 5729 5733 5738 5744 5751 5766 5777 5778 5782 5786 5790 5797 5801 5806 5809 5812 5817 5822 5825 5830 5837 5842 5849 5851 5856 5858 5863 5865 5869 5867 5870 5869 5870 5868 5867 5869 5870 5872 5871 5866 5861 5855 5851
5715 5718 5721 5723 5731 5736 5746 5763 5771 5772 5777 5781 5784 5786 5795 5800 5804 5808 5814 5819 5822 5827 5832 5838 5842 5850 5850 5853 5859 5863 5863 5863 5864 5863 5863 5862 5861 5864 5865 5866 5865 5863 5858 5854 5850
5707 5711 5713 5717 5723 5730 5742 5757 5762 5767 5772 5775 5780 5785 5793 5795 5799 5802 5808 5815 5818 5824 5827 5834 5837 5842 5846 5852 5851 5857 5857 5858 5857 5861 5859 5857 5857 5858 5859 5858 5859 5858 5854 5850 5844
5700 5703 5707 5711 5719 5728 5738 5747 5749 5758 5763 5770 5777 5779 5782 5791 5796 5800 5803 5811 5815 5818 5825 5827 5829 5836 5840 5846 5847 5851 5851 5853 5854 5854 5855 5853 5853 5853 5855 5851 5851 5851 5848 5843 5838
5694 5696 5701 5705 5710 5719 5728 5737 5745 5749 5757 5764 5771 5775 5780 5787 5790 5797 5800 5805 5811 5814 5821 5825 5827 5831 5837 5842 5844 5847 5847 5848 5848 5847 5849 5849 5849 5846 5847 5845 5846 5845 5842 5839 5836
5687 5689 5695 5700 5703 5712 5719 5727 5737 5742 5752 5756 5766 5771 5776 5783 5787 5791 5796 5801 5805 5812 5816 5819 5822 5827 5834 5837 5839 5841 5843 5842 5840 5841 5840 5845 5843 5840 5840 5838 5839 5837 5833 5830 5828
5681 5684 5690 5693 5697 5704 5712 5720 5727 5738 5746 5751 5758 5767 5773 5777 5781 5787 5792 5798 5802 5806 5810 5814 5817 5824 5829 5832 5833 5836 5836 5835 5838 5837 5835 5837 5836 5835 5833 5835 5834 5830 5827 5824 5820
5674 5679 5683 5686 5690 5697 5701 5710 5719 5724 5735 5744 5749 5760 5763 5772 5779 5783 5789 5794 5799 5802 5806 5810 5814 5816 5821 5826 5829 5831 5830 5830 5834 5830 5831 5831 5831 5830 5830 5831 5826 5824 5821 5819 5816
Wind_Speed
18 17 16 14 11 10 7 10 7 5 13 21 25 17 17 20 19 20 20 19 19 26 28 26 24 20 15 13 6 3 4 6 7 19 18 14 15 14 12 7 5 5 7 11 10
17 16 16 15 13 11 8 11 12 8 15 21 18 19 19 21 20 21 21 20 20 26 29 28 25 22 20 12 8 6 9 6 5 18 17 16 14 13 8 3 3 4 8 13 14
19 17 17 17 15 14 10 10 15 13 14 13 15 18 20 22 22 22 25 23 26 27 31 31 28 25 22 17 11 9 11 8 2 17 11 12 10 12 9 8 7 8 10 12 12
17 19 19 20 18 17 15 12 12 16 19 14 16 19 18 22 24 24 27 26 24 26 31 30 26 24 21 17 15 7 11 11 11 5 5 6 5 7 10 10 10 10 11 13 15
20 17 18 20 21 20 19 17 15 17 19 19 16 23 18 22 25 25 27 28 26 28 33 32 28 24 25 20 18 3 8 9 5 4 6 6 6 4 5 8 12 14 14 15 13
21 20 18 19 20 19 18 18 20 18 20 21 20 22 18 23 25 25 26 29 29 31 33 33 31 29 25 18 10 5 9 7 8 7 10 12 11 5 4 8 14 14 16 18 17
25 21 20 17 19 19 18 15 17 23 22 22 21 23 22 23 25 27 26 30 30 34 37 37 34 27 24 25 17 14 11 9 14 15 12 7 10 9 8 8 12 14 18 22 22
26 26 21 20 19 19 20 17 15 21 23 24 22 21 23 26 27 26 26 28 32 36 40 38 35 27 27 26 20 17 19 14 18 18 8 5 7 10 12 10 11 14 18 21 24
26 26 25 23 21 20 21 20 16 17 25 26 24 23 26 22 27 26 26 29 34 38 40 38 35 32 32 29 24 24 21 20 22 22 8 8 3 9 12 10 12 13 15 19 22
26 26 26 27 23 22 20 22 21 18 21 26 27 26 26 32 29 29 29 31 34 40 37 34 34 33 33 29 23 17 19 20 22 21 18 8 7 4 8 9 12 13 15 16 21
27 26 27 29 27 25 23 23 25 22 19 24 28 30 27 30 32 31 30 32 37 39 36 35 33 33 28 19 14 16 19 23 14 10 10 11 4 12 8 9 12 15 18 16 18
27 28 29 30 29 27 26 27 28 24 23 22 28 31 30 29 29 34 34 33 34 33 35 33 34 30 29 26 25 24 24 19 19 9 7 10 6 16 19 18 20 22 24 18 17
26 29 31 31 30 32 29 28 22 22 23 21 26 32 32 32 30 31 35 33 32 33 29 34 36 33 32 29 29 27 25 21 17 16 17 17 13 12 22 26 26 30 27 16 16
26 28 30 33 32 33 31 26 24 24 23 25 22 30 30 34 33 33 34 36 35 30 30 40 36 33 34 33 30 27 20 22 20 15 19 24 26 18 21 24 28 34 25 20 19
24 22 27 33 35 34 29 29 28 25 25 27 24 27 30 30 28 29 31 38 36 33 35 36 36 35 36 31 22 28 18 18 18 21 24 28 33 30 28 29 34 26 30 28 19
24 20 23 31 38 34 32 34 29 27 25 23 24 22 26 28 32 31 31 36 36 36 35 35 35 36 32 24 19 27 25 23 23 25 29 28 31 28 25 26 32 43 46 30 28
26 23 21 30 38 35 36 37 32 26 25 21 22 23 26 26 31 30 28 35 38 40 34 35 39 36 37 34 32 33 29 25 28 27 22 25 25 20 25 28 32 44 44 24 22
23 21 19 33 36 38 40 40 32 24 22 23 28 26 25 28 29 27 27 29 36 34 31 34 36 33 40 37 31 30 29 21 21 21 18 26 25 20 24 26 32 28 35 26 18
23 19 21 32 37 40 43 42 30 27 31 31 31 31 26 26 27 27 28 27 32 31 31 30 32 29 36 29 31 29 23 29 26 24 25 29 24 25 24 22 30 32 29 21 20
23 22 24 29 37 42 44 39 33 40 34 30 26 20 18 24 28 28 27 27 31 31 27 28 27 32 31 34 29 25 19 23 25 27 27 29 27 25 24 25 25 27 30 28 24
23 26 26 30 35 42 42 37 39 46 37 32 28 24 20 16 17 24 21 22 29 25 27 24 29 28 34 35 30 26 25 20 27 33 31 29 27 23 25 24 20 26 32 27 32
25 25 25 28 35 40 39 40 43 49 42 39 35 28 21 23 20 19 16 19 24 25 25 24 27 27 29 31 32 24 23 13 26 27 29 32 31 26 27 30 24 25 23 32 31
27 23 24 25 31 32 39 47 49 54 48 47 42 37 34 28 25 22 18 18 23 20 21 23 31 29 28 28 28 21 22 13 18 27 33 35 32 30 30 33 29 27 30 31 27
28 25 23 26 29 34 43 51 50 53 50 50 47 40 38 35 33 26 20 18 18 18 14 18 26 29 27 24 25 25 19 13 17 24 28 30 30 33 32 35 31 29 37 32 27
30 26 22 23 29 36 45 54 53 48 56 50 49 42 42 39 38 32 26 28 28 22 20 21 23 25 25 27 26 25 23 21 29 29 30 21 27 34 36 37 31 34 41 36 29
29 27 22 21 26 36 44 49 52 48 54 48 50 43 45 44 38 33 30 33 26 26 23 24 23 24 28 34 30 29 29 32 26 27 29 26 28 35 39 31 36 38 36 37 32
28 27 25 26 28 37 44 49 52 57 58 52 41 42 41 41 38 38 39 36 31 29 27 28 28 27 32 39 36 37 34 36 22 32 31 30 32 37 38 32 26 32 36 37 36
Wind_Direction
269 270 273 270 262 255 233 205 186 194 182 193 195 210 201 192 182 169 180 184 191 177 156 152 156 158 167 197 196 167 352 174 68 74 52 39 47 36 36 33 29 19 9 8 16
268 263 265 263 262 258 237 205 190 181 175 197 197 206 197 189 182 178 177 186 187 181 158 155 159 168 193 198 220 259 219 167 99 87 48 32 21 13 14 59 22 34 24 20 16
273 264 258 260 257 256 248 212 201 190 181 185 195 198 197 188 185 183 173 185 186 184 172 166 164 174 190 201 209 258 207 189 185 102 51 17 356 348 344 6 351 7 22 16 9
269 268 259 258 257 258 251 236 211 204 188 189 208 202 197 191 189 188 177 184 191 190 179 168 172 186 200 201 212 205 152 194 150 170 3 3 343 355 343 346 339 5 10 8 0
261 264 265 258 257 252 249 237 222 210 203 193 200 202 201 194 196 190 181 184 193 188 179 175 179 194 207 203 195 195 295 230 199 234 357 285 337 10 3 341 346 353 352 355 349
259 254 260 262 254 253 250 241 227 217 206 203 195 196 200 200 197 195 183 185 187 184 187 176 184 200 209 201 203 184 237 254 257 290 332 302 329 348 345 346 335 355 349 344 345
257 252 247 255 261 250 247 245 233 222 208 201 201 196 198 204 200 194 191 186 187 181 178 183 190 197 204 204 197 211 216 236 272 262 277 284 310 324 329 324 334 354 356 353 350
257 251 245 242 254 256 249 247 236 224 215 206 209 200 203 193 203 195 195 188 190 185 182 194 193 195 208 208 205 230 245 241 257 273 275 277 357 304 299 324 340 358 6 3 356
259 253 248 243 238 250 248 244 236 229 216 207 206 204 193 188 207 197 196 193 192 189 190 195 196 193 211 215 215 219 233 257 273 280 273 250 293 313 293 337 352 359 13 8 357
258 253 248 242 236 235 247 243 239 230 218 211 203 203 199 194 207 202 202 197 196 195 203 200 193 196 208 216 230 234 240 257 272 293 245 227 285 276 273 331 327 336 352 0 350
259 251 246 243 237 232 232 243 237 234 232 223 207 207 207 200 204 202 205 204 202 202 206 203 196 200 206 207 208 211 231 236 258 111 142 240 260 325 279 320 310 306 334 353 353
260 255 245 239 236 233 227 232 234 225 230 232 211 209 207 211 207 206 208 210 210 203 207 196 199 194 205 203 213 228 238 249 250 296 272 276 321 322 326 316 297 301 316 310 336
258 251 243 239 235 229 228 227 239 237 235 229 215 212 211 208 209 216 203 212 215 211 205 198 191 197 207 208 214 225 240 251 266 292 293 295 288 308 307 313 318 308 311 303 312
258 249 244 241 235 231 227 227 224 230 227 240 218 215 210 213 215 209 211 211 216 213 205 197 198 203 204 207 217 224 239 250 258 263 290 284 285 282 287 294 292 296 296 309 305
261 248 240 239 236 231 224 222 220 218 227 230 220 216 213 211 218 219 218 212 215 217 213 199 208 198 206 209 217 229 222 246 246 251 267 273 277 281 294 282 283 271 295 294 270
261 254 241 237 236 230 219 221 217 214 218 226 228 222 220 210 216 217 216 217 213 221 216 209 217 217 206 209 236 244 224 234 241 255 263 275 274 291 286 289 297 296 317 277 249
265 259 242 235 235 225 219 218 214 211 215 214 218 218 213 211 220 223 221 222 216 217 215 215 218 211 202 214 222 232 242 240 243 256 279 279 273 280 288 311 326 325 319 306 230
258 262 242 230 229 220 217 215 208 201 206 199 211 207 211 214 217 220 217 221 223 218 222 221 223 213 207 215 228 240 247 255 250 255 266 271 270 268 289 321 340 329 332 8 257
261 257 239 232 226 217 215 214 194 187 196 207 209 200 203 209 213 217 216 216 223 219 221 219 223 226 226 224 230 245 253 258 258 252 258 265 273 274 291 310 315 332 342 329 319
252 249 237 236 225 216 213 207 187 183 183 197 205 192 197 206 216 213 209 210 217 218 217 219 216 223 221 226 228 235 232 244 240 249 254 265 270 289 294 297 311 307 334 333 329
239 244 234 228 222 216 209 197 186 187 183 186 182 177 175 175 196 222 208 198 209 217 220 221 221 218 231 231 229 235 231 244 239 247 251 261 271 286 289 305 301 298 311 320 331
230 237 236 231 222 214 203 188 187 190 188 182 183 175 187 199 185 185 211 196 199 199 221 218 231 215 228 229 238 228 228 248 241 247 256 263 268 278 290 301 314 329 323 319 320
225 229 228 227 225 214 198 190 189 192 189 184 183 179 190 199 202 200 180 175 175 186 200 217 224 219 213 215 231 232 229 242 255 253 257 267 271 279 292 297 307 318 333 326 330
223 226 220 222 211 210 199 193 191 198 193 190 187 192 193 194 207 202 179 171 186 191 194 216 219 226 214 212 232 230 218 234 255 256 258 266 276 283 291 297 310 318 325 321 324
222 223 222 218 219 211 200 197 195 200 197 190 194 194 191 196 208 205 195 177 195 204 206 229 235 220 199 205 221 234 229 231 244 251 247 255 261 275 285 292 307 314 323 327 322
222 222 218 211 213 207 203 203 200 199 200 203 185 193 194 201 197 187 186 178 197 204 207 228 238 222 206 202 214 221 226 238 259 256 251 248 253 266 277 298 305 311 318 329 324
221 222 214 213 212 208 208 207 204 195 205 201 201 200 189 203 200 195 187 186 194 194 210 216 236 241 208 207 215 223 231 245 250 238 250 252 257 260 272 286 297 314 320 321 316